Ankeny, IA

4:18 AM CDT on March 23, 2017 (GMT -0500)
Ankeny Regional

Weather History for KIKV - October, 2012

Change the Weather History Date:

Thursday, October 11, 2012

  Actual Average (KDSM) Record (KDSM)
Temperature  
Mean Temperature 55 °F -  
Max Temperature 66 °F 65 °F 86 °F (1960)
Min Temperature 44 °F 43 °F 21 °F (1987)
Degree Days  
Heating Degree Days 10    
Growing Degree Days 5 (Base 50)    
Moisture  
Dew Point 24 °F    
Average Humidity 35    
Maximum Humidity 53    
Minimum Humidity 13    
Precipitation  
Precipitation 0.00 in - - ()
Sea Level Pressure  
Sea Level Pressure 30.11 in    
Wind  
Wind Speed 11 mph (West)    
Max Wind Speed 20 mph    
Max Gust Speed 25 mph    
Visibility 10 miles    
Events      
Averages and records for this station are not official NWS values.
T = Trace of Precipitation, MM = Missing Value Source: NWS Daily Summary

Daily Weather History Graph

Daily Weather History Graph

Search for Another Location

Airport or City:

Trip Planner

Search our weather history database for the weather conditions in past years. The results will help you decide how hot, cold, wet, or windy it might be!

Date:

Astronomy

Oct. 11, 2012 Rise Set
Actual Time 7:22 AM CDT 6:38 PM CDT
Civil Twilight 6:54 AM CDT 7:06 PM CDT
Nautical Twilight 6:22 AM CDT 7:38 PM CDT
Astronomical Twilight 5:50 AM CDT 8:10 PM CDT
Moon 2:58 AM CDT (10/11) 4:18 PM CDT (10/11)
Length of Visible Light 12h 11m
Length of Day
11h 15m
Waning Crescent, 18% of the Moon is Illuminated
Oct 11
Waning Crescent
Oct 15
New
Oct 21
First Quarter
Oct 29
Full
Nov 6
Last Quarter

Hourly Weather History & Observations

Time (CDT) Temp. Windchill Dew Point Humidity Pressure Visibility Wind Dir Wind Speed Gust Speed Precip Events Conditions
12:15 AM 48.2 °F - 23.0 °F 37% 30.06 in 10.0 mi South 9.2 mph - N/A   Clear
12:35 AM 48.2 °F - 24.8 °F 40% 30.05 in 10.0 mi South 9.2 mph - N/A   Clear
12:55 AM 48.2 °F - 24.8 °F 40% 30.05 in 10.0 mi South 8.1 mph - N/A   Clear
1:15 AM 48.2 °F - 24.8 °F 40% 30.05 in 10.0 mi SSW 8.1 mph - N/A   Clear
1:55 AM 48.2 °F - 23.0 °F 37% 30.04 in 10.0 mi SSW 10.4 mph - N/A   Clear
2:15 AM 50.0 °F - 23.0 °F 35% 30.04 in 10.0 mi SSW 11.5 mph - N/A   Clear
2:55 AM 51.8 °F - 24.8 °F 35% 30.04 in 10.0 mi SSW 11.5 mph 18.4 mph N/A   Clear
3:15 AM 51.8 °F - 24.8 °F 35% 30.04 in 10.0 mi SSW 15.0 mph 21.9 mph N/A   Clear
3:35 AM 51.8 °F - 26.6 °F 38% 30.03 in 10.0 mi SSW 11.5 mph 17.3 mph N/A   Clear
3:55 AM 51.8 °F - 26.6 °F 38% 30.03 in 10.0 mi SSW 12.7 mph 18.4 mph N/A   Clear
4:15 AM 50.0 °F - 28.4 °F 43% 30.03 in 10.0 mi SSW 9.2 mph - N/A   Clear
4:35 AM 50.0 °F - 28.4 °F 43% 30.04 in 10.0 mi SSW 11.5 mph - N/A   Clear
4:55 AM 48.2 °F - 28.4 °F 46% 30.04 in 10.0 mi SSW 11.5 mph 16.1 mph N/A   Clear
5:15 AM 50.0 °F - 28.4 °F 43% 30.04 in 10.0 mi SSW 10.4 mph - N/A   Clear
5:35 AM 48.2 °F - 30.2 °F 50% 30.04 in 10.0 mi SSW 9.2 mph - N/A   Clear
5:55 AM 48.2 °F - 30.2 °F 50% 30.04 in 10.0 mi SSW 9.2 mph - N/A   Clear
6:15 AM 48.2 °F - 30.2 °F 50% 30.04 in 10.0 mi SSW 9.2 mph - N/A   Clear
6:35 AM 48.2 °F - 30.2 °F 50% 30.04 in 10.0 mi SSW 6.9 mph - N/A   Clear
6:55 AM 48.2 °F - 30.2 °F 50% 30.04 in 10.0 mi SSW 8.1 mph - N/A   Clear
7:15 AM 46.4 °F 42.4 °F 30.2 °F 53% 30.04 in 10.0 mi SSW 8.1 mph - N/A   Clear
7:35 AM 48.2 °F - 30.2 °F 50% 30.05 in 10.0 mi SSW 6.9 mph - N/A   Clear
7:55 AM 48.2 °F - 30.2 °F 50% 30.05 in 10.0 mi SSW 9.2 mph - N/A   Clear
8:15 AM 48.2 °F - 30.2 °F 50% 30.05 in 10.0 mi SSW 6.9 mph - N/A   Clear
8:35 AM 51.8 °F - 30.2 °F 44% 30.05 in 10.0 mi SSW 10.4 mph 16.1 mph N/A   Clear
8:55 AM 51.8 °F - 30.2 °F 44% 30.06 in 10.0 mi SSW 9.2 mph - N/A   Clear
9:15 AM 53.6 °F - 30.2 °F 41% 30.05 in 10.0 mi SSW 9.2 mph - N/A   Clear
9:35 AM 55.4 °F - 28.4 °F 36% 30.05 in 10.0 mi SSW 12.7 mph - N/A   Clear
9:55 AM 57.2 °F - 28.4 °F 33% 30.06 in 10.0 mi SW 10.4 mph - N/A   Clear
10:15 AM 60.8 °F - 26.6 °F 27% 30.06 in 10.0 mi WSW 13.8 mph - N/A   Clear
10:35 AM 62.6 °F - 24.8 °F 24% 30.07 in 10.0 mi WSW 11.5 mph 18.4 mph N/A   Clear
10:55 AM 64.4 °F - 23.0 °F 21% 30.08 in 10.0 mi WSW 12.7 mph 21.9 mph N/A   Clear
11:15 AM 64.4 °F - 23.0 °F 21% 30.08 in 10.0 mi WSW 13.8 mph 18.4 mph N/A   Clear
11:35 AM 64.4 °F - 23.0 °F 21% 30.08 in 10.0 mi West 16.1 mph 20.7 mph N/A   Clear
11:55 AM 66.2 °F - 21.2 °F 18% 30.08 in 10.0 mi WNW 12.7 mph 19.6 mph N/A   Clear
12:15 PM 66.2 °F - 21.2 °F 18% 30.07 in 10.0 mi NW 11.5 mph - N/A   Clear
12:55 PM 66.2 °F - 19.4 °F 17% 30.07 in 10.0 mi NW 11.5 mph - N/A   Scattered Clouds
1:15 PM 66.2 °F - 14.0 °F 13% 30.07 in 10.0 mi WNW 10.4 mph 16.1 mph N/A   Mostly Cloudy
1:35 PM 66.2 °F - 14.0 °F 13% 30.08 in 10.0 mi North 11.5 mph 17.3 mph N/A   Mostly Cloudy
1:55 PM 64.4 °F - 15.8 °F 15% 30.08 in 10.0 mi North 12.7 mph 19.6 mph N/A   Scattered Clouds
2:15 PM 64.4 °F - 14.0 °F 14% 30.08 in 10.0 mi North 10.4 mph 17.3 mph N/A   Clear
2:35 PM 64.4 °F - 14.0 °F 14% 30.09 in 10.0 mi North 12.7 mph - N/A   Clear
2:55 PM 62.6 °F - 17.6 °F 18% 30.10 in 10.0 mi North 11.5 mph 24.2 mph N/A   Clear
3:15 PM 62.6 °F - 19.4 °F 19% 30.11 in 10.0 mi North 11.5 mph - N/A   Clear
3:55 PM 64.4 °F - 17.6 °F 16% 30.13 in 10.0 mi North 19.6 mph 23.0 mph N/A   Clear
4:15 PM 60.8 °F - 23.0 °F 23% 30.14 in 10.0 mi North 16.1 mph 24.2 mph N/A   Clear
4:35 PM 57.2 °F - 26.6 °F 31% 30.14 in 10.0 mi North 16.1 mph 25.3 mph N/A   Clear
5:15 PM 55.4 °F - 23.0 °F 29% 30.16 in 10.0 mi North 16.1 mph 21.9 mph N/A   Clear
5:35 PM 53.6 °F - 26.6 °F 35% 30.17 in 10.0 mi North 16.1 mph 21.9 mph N/A   Clear
5:55 PM 53.6 °F - 26.6 °F 35% 30.18 in 10.0 mi North 15.0 mph 24.2 mph N/A   Clear
6:35 PM 51.8 °F - 24.8 °F 35% 30.20 in 10.0 mi NNE 15.0 mph - N/A   Clear
6:55 PM 50.0 °F - 23.0 °F 35% 30.21 in 10.0 mi NNE 12.7 mph 18.4 mph N/A   Clear
7:15 PM 50.0 °F - 24.8 °F 37% 30.21 in 10.0 mi North 15.0 mph - N/A   Clear
7:35 PM 48.2 °F - 24.8 °F 40% 30.21 in 10.0 mi NNE 12.7 mph - N/A   Clear
7:55 PM 48.2 °F - 26.6 °F 43% 30.22 in 10.0 mi North 10.4 mph - N/A   Clear
8:15 PM 46.4 °F 42.4 °F 24.8 °F 43% 30.25 in 10.0 mi North 8.1 mph - N/A   Scattered Clouds
8:35 PM 46.4 °F 42.9 °F 26.6 °F 46% 30.26 in 10.0 mi North 6.9 mph - N/A   Scattered Clouds
8:55 PM 44.6 °F 42.2 °F 26.6 °F 49% 30.28 in 10.0 mi North 4.6 mph - N/A   Mostly Cloudy
9:15 PM 46.4 °F 44.3 °F 26.6 °F 46% 30.29 in 10.0 mi North 4.6 mph - N/A   Overcast
9:55 PM 46.4 °F 41.9 °F 28.4 °F 50% 30.30 in 10.0 mi North 9.2 mph - N/A   Overcast
10:55 PM 46.4 °F 41.5 °F 19.4 °F 34% 30.32 in 10.0 mi North 10.4 mph - N/A   Mostly Cloudy
11:15 PM 46.4 °F 41.5 °F 17.6 °F 32% 30.33 in 10.0 mi North 10.4 mph - N/A   Overcast
11:35 PM 46.4 °F 41.1 °F 15.8 °F 29% 30.33 in 10.0 mi North 11.5 mph - N/A   Overcast
11:55 PM 46.4 °F 42.4 °F 17.6 °F 32% 30.34 in 10.0 mi North 8.1 mph - N/A   Overcast